Content
SEND FEEDBACK

Daily
Averages
Monthly
Summary
Canada

TETE A LA BALEINE, QUEBEC


Home > North America > Canada > Quebec
Elevation: 30 feet     Latitude: 50 42N     Longitude: 59 19W

WEATHER
 
SELECT A DAY
Number of Records: 150,469;   Date Range: 1/1/95 - 7/10/14
 
SHARE

PRINT THIS DATA

[ ← Previous Day ]
WEATHER ALMANAC - FEBRUARY 13, 2013
[ Next Day → ]
[ °C ]   °F
Weather ElementAverageHighLow
Temperature23.2 °F27 °F (5:00 pm)19.9 °F (8:00 am)
Dewpoint20.7 °F23.9 °F (1:00 am)18 °F (11:00 pm)
Humidity89.3 %98 % (1:00 am)71 % (8:00 pm)
Barometer29.46 in29.61 in (11:00 pm)29.33 in (4:00 am)
Wind Speed19.8 mph28.8 mph (1:00 am)
Wind Gust39.1 mph (1:00 am)
Weather ElementAverage
Wind DirectionWSW (236 °)

Weather ElementTotal
Precipitation0.09 in
Heating Degree Days41.6 (Base 65)
Averaged from 30 records on February 13, 2013
WEATHER CONDITIONS BREAKOUT
WIND DIRECTION BREAKOUT
WEATHER BY HOUR - FEBRUARY 13, 2013
[ °C ]   °F
Local TimeTemperatureDewpointHumidityBarometerVisibilityWind DirectionWind SpeedGust SpeedPrecipitationEventsConditions
1:00 AM24.4 °F23.9 °F98 %29.34 inNE (40°)28.8 mph39.1 mph0.02 in
2:00 AM23.0 °F23.0 °F98 %29.34 inNNE (30°)25.3 mph
2:00 AM23.2 °F22.6 °F98 %29.34 inNNE (30°)25.3 mph32.2 mph0.02 in
3:00 AM22.5 °F21.9 °F98 %29.34 inNNE (30°)24.2 mph32.2 mph0.02 in
4:00 AM21.7 °F21.0 °F97 %29.33 inNNE (20°)27.6 mph33.4 mph0.02 in
5:00 AM21.0 °F20.0 °F96 %29.34 inNNE (20°)27.6 mph
5:00 AM21.0 °F20.3 °F97 %29.34 inNNE (20°)27.6 mph35.7 mph
6:00 AM20.7 °F19.8 °F96 %29.36 inNorth (10°)25.3 mph33.4 mph
7:00 AM20.5 °F19.6 °F96 %29.39 inNorth (360°)24.2 mph29.9 mph
8:00 AM20.0 °F19.0 °F94 %29.41 inNorth24.2 mph
8:00 AM19.9 °F19.0 °F96 %29.41 inNorth (360°)24.2 mph
9:00 AM20.3 °F19.4 °F96 %29.43 inNorth (360°)21.9 mph
10:00 AM20.5 °F19.6 °F96 %29.44 inNorth (350°)20.7 mph
11:00 AM22.0 °F21.0 °F92 %29.44 inNorth23.0 mph
11:00 AM21.6 °F20.7 °F96 %29.44 inNorth (360°)23.0 mph28.8 mph
12:00 PM23.2 °F22.3 °F96 %29.45 inNorth (350°)19.6 mph
1:00 PM24.1 °F22.8 °F95 %29.47 inNNW (340°)18.4 mph0.01 in
2:00 PM25.0 °F22.0 °F84 %29.48 inNNW (330°)18.4 mph
2:00 PM24.8 °F22.1 °F89 %29.48 inNNW (330°)18.4 mph
3:00 PM26.2 °F22.5 °F86 %29.49 inNNW (340°)17.3 mph24.2 mph
5:00 PM27.0 °F22.0 °F73 %29.52 inNNW (340°)16.1 mph
5:00 PM26.8 °F21.7 °F81 %29.52 inNNW (340°)16.1 mph
6:00 PM25.7 °F20.3 °F80 %29.54 inNNW (340°)13.8 mph
7:00 PM25.5 °F20.1 °F80 %29.55 inNNW (340°)12.7 mph
8:00 PM26.0 °F20.0 °F71 %29.56 inNNW (340°)12.7 mph
8:00 PM25.5 °F20.3 °F81 %29.56 inNNW (340°)12.7 mph
9:00 PM25.0 °F19.8 °F81 %29.58 inNNW (340°)11.5 mph
10:00 PM23.0 °F18.3 °F82 %29.60 inNNW (340°)11.5 mph
11:00 PM23.0 °F18.0 °F73 %29.61 inNNW (340°)11.5 mph
11:00 PM22.8 °F18.0 °F82 %29.61 inNNW (340°)11.5 mph
Hourly data recorded from CYHR, located miles away from Tete A La Baleine, Quebec







STORIES FROM OUR PARTNERS